Location: Newark
(47.4000°N, 7.5833°E)
Time: 14:38:42
(UTC+00:00)

N. Korean satellite - Pass Details

Date: 01 February 2020
Orbit: 456 x 505 km, 97.2° (Epoch: 29 February)

Event Time Altitude Azimuth Distance (km) Brightness Sun altitude
Rises 04:17:13 0° 30° (NNE) 2,567 10.7 -27.1°
Reaches altitude 10° 04:20:02 10° 55° (NE) 1,691 10.0 -26.6°
Maximum altitude 04:22:10 15° 91° (E) 1,417 9.8 -26.2°
Drops below altitude 10° 04:24:18 10° 127° (SE) 1,696 9.9 -25.9°
Sets 04:27:08 0° 152° (SSE) 2,581 10.6 -25.4°
